Simultaneous Nadir Overpasses (SNOs) Predictions

Prediction of SNOs between GOES-15 and METOP-A Satellite Orbit:

Table of predicted SNOs for the next 14.0 days since TLE Epoch: 4/27/2018
Index Date Time (GOES-15) GOES-15 Lat,Lon METOP-A Lat,Lon Distance(km) Time Diff (sec)
1 04/28/2018 06:22:39 0.10,-135.47 0.25,-134.69 88.10 80
2 04/29/2018 18:38:49 -0.11,-135.49 0.72,-139.27 430.17 80
3 04/30/2018 18:20:47 -0.11,-135.49 -0.37,-134.26 139.64 80
4 05/02/2018 06:37:06 0.12,-135.49 -0.64,-138.87 384.62 80
5 05/03/2018 06:19:05 0.12,-135.50 0.51,-133.88 184.87 80
6 05/04/2018 18:35:14 -0.13,-135.50 0.52,-138.44 334.50 80
7 05/05/2018 18:17:13 -0.13,-135.50 -0.56,-133.44 234.52 80
8 05/07/2018 06:33:31 0.13,-135.49 -0.43,-138.05 290.83 80
9 05/08/2018 06:15:30 0.14,-135.49 0.65,-133.04 277.99 80
10 05/09/2018 18:34:20 -0.14,-135.49 0.31,-137.62 242.20 80
11 05/10/2018 18:13:39 -0.14,-135.48 -0.77,-132.62 326.25 80




NCC Satellite Simultaneous Nadir Overpasses (SNOs) Prediction Service
